Время (UTC), дата Ветер
(°,м/с) 
Видим.   Явления Облачность Т
(°С)
Тd
(°С)
f(%) Тe
(°С)
Pmin
(гПа)
dP
(гПа)
Po
(мм)
O2
(г/м3)
Тmin Tmax R s Состояние
почвы
00 01.05.18 100 (В) 20000 м    ясно 
+6.7 -0.6 60 +5  1019.2  -0.4  724  285           
03 01.05.18 110 (В) 20000 м    ясно 
+7 +1.1 66 +6  1019.1  724  284  +4.5        сухая 
06 01.05.18 120 (ЮВ) 20000 м    ясно 
+14.3 +3.8 49 +14  1018.8  724  277           
09 01.05.18 110 (В) 20000 м    ясно 
+20.9 +4.6 34 +21  1017.1  -0.4  724  270           
12 01.05.18 100 (В) 6{10}  20000 м    ясно 
+23.6 +3.1 26 +24  1015.9  -0.7  724  268           
15 01.05.18 100 (В) 20000 м    ясно 
+21.9 +4.8 33 +22  1015.9  -0.3  723  269    +24       
18 01.05.18 100 (В) 20000 м    ясно 
+14.1 +4.5 52 +14  1017.8  0.5  724  277           
21 01.05.18 130 (ЮВ) 20000 м    ясно 
+13.1 +3.1 51 +13  1017.5  -0.5  723  278           
00 02.05.18 170 (Ю) 20000 м    ясно 
+9 +2.2 62 +8  1017.4  -0.9  723  282           
03 02.05.18 160 (Ю) 20000 м    ясно 
+12.3 +4.2 58 +12  1016.7  -0.1  723  278  +8.1        сухая 
06 02.05.18 120 (ЮВ) 20000 м    ясно 
+18.7 +7.1 47 +19  1016.1  0.6  723  271           
09 02.05.18 080 (В) 20000 м    ясно 
+24.1 +7.1 34 +24  1015.2  723  267           
12 02.05.18 060 (СВ) 20000 м    ясно 
+25.7 +7.1 31 +26  1014.1  -0.7  723  265           
15 02.05.18 070 (В) 20000 м    ясно 
+23.2 +8.7 40 +23  1014.1  -0.4  722  267    +25.8       
18 02.05.18 110 (В) 20000 м    ясно 
+17.1 +8.8 58 +18  1015.6  0.4  723  272           
21 02.05.18 180 (Ю) 20000 м    ясно 
+15.5 +9 65 +18  1015.5  -0.4  722  274           
00 03.05.18 130 (ЮВ) 20000 м    ясно 
+12.7 +8.5 76 +13  1015.3  -0.7  722  276           
03 03.05.18 160 (Ю) 20000 м    ясно 
+13.8 +9.4 75 +15  1014.6  -0.4  722  275  +10.4        сухая 
06 03.05.18 150 (ЮВ) 20000 м    ясно 
+22.2 +11.7 51 +27  1013.3  0.2  722  267           
09 03.05.18 360 (С) 20000 м    ясно 
+27.4 +4.7 23 +27  1012  -0.5  721  263           
12 03.05.18 050 (СВ) 5{10}  20000 м    ясно 
+26.7 +9.5 34 +28  1011.8  -0.2  721  263           
15 03.05.18 070 (В) 20000 м    3/0 средняя 
[Ac trans]
+23.9 +8.8 38 +24  1011.6  -0.7  721  265    +28.3       
18 03.05.18 110 (В) 20000 м    ясно 
+18.5 +9 54 +20  1013.2  0.7  721  271           
21 03.05.18 120 (ЮВ) 20000 м    ясно 
+17.3 +8.4 56 +18  1013.2  -0.3  721  272           
00 04.05.18 тихо ()   20000 м    ясно 
+13.1 +8.8 75 +13  1013.8  -0.1  721  276           
03 04.05.18 150 (ЮВ) 20000 м    1/0 средняя 
[Ac trans]
+15.9 +9.5 66 +18  1013.3  721  273  +9.8        сухая 
06 04.05.18 тихо ()   20000 м    1/0 верхняя 
[Ci fib]
+24.1 +9.6 40 +26  1012.1  0.2  721  265           
09 04.05.18 030 (СВ) 20000 м    3/0 верхняя 
[Ci fib]
+26.4 +9.7 35 +28  1011.1  -0.6  721  263           
12 04.05.18 040 (СВ) 20000 м    ясно 
+27.3 +9.8 33 +29  1010.8  0.1  720  262           
15 04.05.18 030 (СВ) 20000 м    3/0 верхняя 
[Ci]
+25.2 +10 38 +27  1011  -0.1  720  264    +27.9       
18 04.05.18 060 (СВ) 20000 м    4/0 верхняя 
[Ci fib]
+20.3 +8.8 48 +21  1012.5  0.6  721  269           
21 04.05.18 110 (В) 20000 м    1/0 средняя 
[Ac trans]
+17.2 +8.5 57 +18  1012.6  -0.5  720  272           
00 05.05.18 090 (В) 20000 м    3/0 верхняя 
[Ci fib]
+15 +9 67 +16  1012.9  0.1  720  274           
03 05.05.18 080 (В) 20000 м    8/0 верхняя 
[Ci fib]
+13.9 +9.6 75 +15  1013  720  274  +13.4        сухая 
06 05.05.18 110 (В) 20000 м    10/0 верхняя 
[Ci fib]
+19.4 +9.9 54 +22  1012.7  0.6  721  269           
09 05.05.18 110 (В) 9-12{12}  20000 м    9/0 верхняя 
[Ci fib]
+25.8 +5.6 27 +26  1011.6  721  264           
12 05.05.18 090 (В) 10-13{15}  20000 м    10/0 верхняя 
[Cs]
+26.8 +4.9 25 +27  1010.9  -0.5  720  264           
15 05.05.18 090 (В) 7{13}  20000 м    10/0 верхняя 
[Cs]
+25.4 +4.4 26 +25  1010.5  -0.6  720  265    +27.1       
18 05.05.18 080 (В) 20000 м    10/0 средняя, верхняя 
[Ac trans|Ci sp]
+20.1 +2.6 31 +20  1011.8  0.3  720  270           
21 05.05.18 070 (В) 20000 м    8/0 верхняя 
[Ci fib]
+14.8 +5 52 +15  1012.3  -0.4  720  274           
00 06.05.18 090 (В) 6{10}  20000 м    8/0 верхняя 
[Ci fib]
+14.2 +3.2 47 +13  1012.5  -0.4  720  275           
03 06.05.18 080 (В) 20000 м    10/4 1000 м средняя, верхняя 
[Sc|Ac As|Ci sp]
+15.1 +4.5 49 +15  1011.7  -0.4  719  274  +13.2        сухая 
06 06.05.18 120 (ЮВ) 20000 м    10/3 1000 м кучево-дожд., средняя 
[Cb calv|Ac und]
+17.5 +7 50 +18  1011.2  719  271           
09 06.05.18 060 (СВ) 20000 м    8/3 1000 м средняя 
[Sc diur, vesp|Ac trans]
+22.6 +8.1 39 +23  1010.3  0.1  720  266           
12 06.05.18 080 (В) 10-13{16}  20000 м    3/0 средняя 
[Ac trans]
+25.2 +7.1 31 +25  1009  -0.8  719  264           
15 06.05.18 080 (В) 7-12  20000 м    4/0 верхняя 
[Ci fib]
+22.4 +5.9 34 +22  1008.7  -0.8  718  267    +25.7       
18 06.05.18 060 (СВ) 3{12}  20000 м    4/0 верхняя 
[Ci fib]
+15.8 +8.2 61 +16  1010.8  0.9  719  272           
21 06.05.18 060 (СВ) 3{12}  20000 м    4/0 верхняя 
[Ci fib]
+15.8 +8.2 61 +16  1010.8  0.9  719  272           
00 07.05.18 тихо ()   10 км    9/0 средняя 
[Ac trans]
+13.1 +8.4 73 +13  1009.4  -1.2  718  274           
03 07.05.18 210 (ЮЗ) 20000 м    8/0 средняя 
[Ac trans]
+13.2 +9.4 78 +15  1009.2  -0.2  718  274  +11.6        сухая 
06 07.05.18 270 (З) 20000 м    9/3 1000 м кучево-дожд., средняя 
[Cb calv|Ac trans]
+18.8 +12.4 66 +25  1008.9  0.8  718  268           
09 07.05.18 300 (СЗ) 10 км  слаб. ливневой дождь  10/4 1000 м кучево-дожд., средняя 
[Cb cap|Ac und]
+17.1 +13.2 78 +24  1010.1  0.9  719  270           
12 07.05.18 300 (СЗ) 4{10}  20000 м  {ливн. осадки}  9/3 600 м кучево-дожд., средняя 
[Cb calv|Ac trans]
+18.6 +13.1 70 +26  1009.4  -0.4  718  268           
15 07.05.18 330 (СЗ) 20000 м    8/1 600 м средняя, верхняя 
[Sc diur, vesp|Ac trans|Ci fib]
+17.3 +12.8 75 +24  1009.1  -0.6  718  270    +19.7     
18 07.05.18 030 (СВ) 20000 м    6/1 1000 м средняя 
[Sc|Ac trans]
+14.1 +12.5 90 +21  1009.2  -0.5  718  272           
21 07.05.18 100 (В) 4000 м  дымка  6/3 600 м средняя 
[Sc|Ac trans]
+12.6 +11.9 95 +17  1008.2  -1.2  717  274           
00 08.05.18 090 (В) 4000 м  дымка  8/0 средняя 
[Ac trans]
+13.2 +12.6 96 +18  1006.7  -1.3  716  273           
03 08.05.18 110 (В) 4000 м  дымка  9/3 200 м средняя 
[St|Ac trans]
+12.5 +11.9 96 +17  1006.3  -0.5  715  273  +12.1         
06 08.05.18 080 (В) 8-11{11}  20000 м    10/4 1000 м средняя 
[Sc|Ac und]
+14.1 +9.9 76 +15  1005  -0.5  715  272           
09 08.05.18 080 (В) 9-12{12}  10 км    10/4 1000 м средняя 
[Sc|Ac und]
+18.3 +8.8 54 +19  1003.4  -0.8  714  268           
12 08.05.18 180 (Ю) 2{12}  10 км  слаб. дождь  10/6 1000 м средняя 
[Sc|Ac und]
+17 +11.3 69 +22  1003.8  0.2  714  269           
15 08.05.18 030 (СВ) 20000 м  {дождь}  10/3 1000 м средняя 
[Sc|Ac und]
+17.5 +9.1 58 +19  1003.1  -0.6  714  269    +19.4  0.3     
18 08.05.18 110 (В) 6{10}  10 км  слаб. ливневой дождь  10/8 1000 м кучево-дожд., средняя 
[Cb cap|Ac und]
+12.8 +8.3 74 +12  1005.1  1.1  715  274           
21 08.05.18 100 (В) 20000 м  в посл. час ливневой дождь  10/3 600 м средняя 
[Sc|Ac und]
+12.2 +7.3 72 +12  1003.7  -1.4  713  274           
00 09.05.18 100 (В) 10 км  слаб. ливневой дождь  10/8 1000 м кучево-дожд., средняя 
[Cb cap|Ac und]
+10.8 +10.2 96 +13  1003.4  -0.5  713  274           
03 09.05.18 110 (В) 10 км  слаб. ливневой дождь  10/8 1000 м кучево-дожд., средняя 
[Cb cap|Ac und]
+10.6 +10.2 97 +13  1004  0.5  713  275  +10.2    15     
06 09.05.18 040 (СВ) 10 км  слаб. ливневой дождь  10/8 600 м кучево-дожд., средняя 
[Cb calv|Ac und]
+12.1 +11.4 95 +16  1004.5  0.8  714  273           
09 09.05.18 040 (СВ) 10 км  слаб. ливневой дождь  10/8 600 м кучево-дожд., средняя 
[Cb calv|Ac und]
+12.1 +11.4 95 +16  1004.5  0.8  714  273           
12 09.05.18 330 (СЗ) 20000 м  слаб. ливневой дождь  10/8 600 м кучево-дожд., средняя 
[Cb cap|Ac und]
+14.4 +12.2 87 +20  1004.4  714  271           
15 09.05.18 360 (С) 20000 м  {ливн. осадки}  10/8 300 м кучево-дожд., средняя 
[Cb calv|Ac und]
+11.9 +10.5 91 +15  1005.2  0.3  715  274    +14.9     
18 09.05.18 320 (СЗ) 20000 м  {ливн. осадки}  10/8 300 м кучево-дожд., средняя 
[Cb calv|Ac und]
+11.2 +10.2 94 +13  1005.6  0.3  715  275           
21 09.05.18 280 (З) 20000 м  {ливн. осадки}  10/6 600 м кучево-дожд., средняя 
[Cb calv|Ac und]
+10.9 +10.1 95 +13  1005.1  -0.6  714  275           
00 10.05.18 280 (З) 20000 м  в посл. час ливневой дождь  10/6 600 м кучево-дожд., средняя 
[Cb calv|Ac und]
+10.6 +8.9 89 +10  1005.3  0.1  714  275           
03 10.05.18 290 (З) 20000 м    10/5 600 м средняя 
[Sc diur, vesp|Ac und]
+11.1 +8.4 83 +9  1006  0.8  715  275  +10.5      влажная 
06 10.05.18 290 (З) 5{10}  20000 м    10/4 1000 м средняя 
[Sc|Ac und]
+14.2 +10 76 +16  1006.9  1.4  716  272           
09 10.05.18 320 (СЗ) 20000 м    9/3 1000 м средняя 
[Sc|Ac trans]
+17.7 +10.5 63 +21  1006.8  0.4  716  269           
12 10.05.18 330 (СЗ) 20000 м    9/3 1000 м средняя 
[Sc|Ac trans]
+18.9 +9.1 53 +20  1006.4  -0.2  716  268           
15 10.05.18 360 (С) 20000 м    9/3 600 м средняя 
[Sc|Ac trans]
+17.4 +8.6 56 +18  1007.1  0.4  717  270    +19.9       
18 10.05.18 300 (СЗ) 20000 м    6/0 средняя 
[Ac trans]
+15.2 +7.5 60 +16  1008.2  0.4  717  272           
21 10.05.18 310 (СЗ) 20000 м    6/0 средняя 
[Ac trans]
+14.9 +7.2 60 +15  1007.4  -0.8  716  272           
00 11.05.18 350 (С) 20000 м    5/0 средняя 
[Ac trans]
+13.4 +7.6 68 +14  1007.3  -0.4  716  274           
03 11.05.18 010 (С) 20000 м  в посл. час ливневой дождь  10/6 1000 м кучево-дожд., средняя 
[Cb calv|Ac und]
+10.1 +7 81 +10  1008.5  0.6  717  277  +10.1    0.3     
06 11.05.18 040 (СВ) 20000 м  {ливн. осадки}  9/3 1000 м кучево-дожд., средняя 
[Cb cap|Ac trans]
+10.6 +6.1 74 +10  1008.7  0.2  717  277  +9.4         
09 11.05.18 010 (С) 20000 м  в посл. час ливневой дождь  9/4 600 м кучево-дожд., средняя 
[Cb cap|Ac trans]
+12.6 +6.3 65 +12  1008.4  0.1  717  275           
12 11.05.18 010 (С) 20000 м  {ливн. осадки}  9/4 600 м кучево-дожд., средняя 
[Cb calv|Ac trans]
+13.7 +4 52 +13  1009.1  0.8  717  275           
15 11.05.18 020 (С) 20000 м    6/3 1000 м средняя 
[Sc diur, vesp|Ac trans]
+11.6 +0.5 46 +11  1010.5  0.9  718  277    +14.4  0.3     
18 11.05.18 030 (СВ) 20000 м    3/0 средняя 
[Ac trans]
+8.1 -0.7 54 +7  1012.6  1.4  719  281           
21 11.05.18 030 (СВ) 20000 м    3/0 средняя 
[Ac trans]
+8.1 -0.7 54 +7  1012.6  1.4  719  281           
00 12.05.18 тихо ()   20000 м    3/0 средняя 
[Ac trans]
+4.6 -0.8 68 +5  1012.1  -0.6  718  285           
03 12.05.18 тихо ()   20000 м    6/0 средняя 
[Ac trans]
+6.6 +2.9 77 +7  1012.2  -0.6  719  282  +1.5        влажная 
06 12.05.18 110 (В) 20000 м    4/1 600 м средняя 
[Cu hum|Ac trans]
+12.2 -0.1 43 +13  1011.7  0.5  719  277           
09 12.05.18 110 (В) 20000 м    4/1 600 м средняя 
[Cu hum|Ac trans]
+12.2 -0.1 43 +13  1011.7  0.5  719  277           
12 12.05.18 130 (ЮВ) 20000 м    9/5 600 м средняя 
[Cu hum|Ac trans]
+15.8 +4.2 46 +16  1010.3  -0.2  719  273           
15 12.05.18 130 (ЮВ) 20000 м    8/8 1000 м 
[Sc diur, vesp]
+13.8 +5.9 59 +13  1011.9  1.1  719  275    +16.6       
18 12.05.18 110 (В) 20000 м    8/3 1000 м средняя 
[Sc|Ac As]
+11.2 +6.4 72 +11  1013.6  1.2  720  278           
21 12.05.18 090 (В) 20000 м    9/3 1000 м средняя 
[Sc|Ac trans]
+10.6 +6.9 78 +10  1013  -0.7  720  278           
00 13.05.18 100 (В) 20000 м    10/4 1000 м средняя 
[Sc|Ac und]
+10.6 +7.3 80 +10  1013.4  0.4  720  278           
03 13.05.18 100 (В) 20000 м  слаб. дождь  10/3 600 м средняя 
[Sc|Ac und]
+10.6 +7.7 82 +10  1013.8  0.4  720  278  +10    0.3     
06 13.05.18 090 (В) 20000 м  {дождь}  10/3 1000 м средняя 
[Sc|Ac und]
+12 +8.2 78 +12  1014.2  0.7  721  277           
09 13.05.18 120 (ЮВ) 5{10}  20000 м    10/5 600 м средняя 
[Sc|Ac und]
+14.3 +7.2 62 +14  1014.2  0.4  721  275           
12 13.05.18 тихо ()   20000 м    10/4 1000 м средняя 
[Sc|Ac und]
+16.2 +9 62 +17  1014  0.2  721  273           
15 13.05.18 330 (СЗ) 20000 м    10/4 1000 м средняя 
[Sc|Ac und]
+15.9 +9.2 64 +18  1014.2  0.1  721  273      299    замёрзшая 
18 13.05.18 320 (СЗ) 20000 м    10/4 1000 м средняя 
[Sc|Ac und]
+13.8 +10.4 80 +16  1015.3  0.7  722  275           
21 13.05.18 320 (СЗ) 20000 м    10/4 1000 м средняя 
[Sc|Ac und]
+13.2 +9.7 79 +15  1014.7  -0.7  722  275           
00 14.05.18 320 (СЗ) 20000 м    10/0 средняя 
[Ac und]
+12.7 +9.4 80 +14  1014.3  -0.4  721  276           
03 14.05.18 330 (СЗ) 20000 м    10/0 средняя 
[Ac und]
+13.2 +9.7 79 +16  1014.6  0.3  721  275  +12.3        сухая 
06 14.05.18 020 (С) 20000 м    4/0 средняя 
[Ac trans]
+18.2 +10.7 62 +23  1014.2  0.5  722  271           
09 14.05.18 070 (В) 20000 м    5/3 600 м верхняя 
[Cu hum|Ci fib]
+20.6 +9.8 50 +22  1014.3  0.5  722  269           
12 14.05.18 310 (СЗ) 20000 м    6/6 1000 м 
[Cu hum]
+21.7 +12.5 56 +27  1014.3  0.2  722  267           
15 14.05.18 280 (З) 20000 м    6/0 средняя, верхняя 
[Ac trans|Ci fib]
+20 +12.4 62 +25  1014.7  722  269    +23.5       
18 14.05.18 290 (З) 20000 м    6/3 1000 м кучево-дожд., верхняя 
[Cb calv|Ci fib]
+16.2 +11.8 75 +20  1017.3  1.8  724  273           
21 14.05.18 290 (З) 20000 м    6/0 средняя, верхняя 
[Ac trans|Ci fib]
+14.9 +12.7 87 +21  1017.1  -0.3  723  274           
00 15.05.18 280 (З) 2000 м  дымка  ясно 
+14 +13 94 +20  1017.7  0.4  724  275           
03 15.05.18 290 (З) 0200 м  туман  ?/?  
+14.1 +13.4 96 +21  1019  1.2  725  275  +13.6        сухая 
06 15.05.18 290 (З) 2000 м  дымка{туман}  10/8 200 м средняя 
[St|Ac und]
+16.4 +14.2 87 +24  1019.4  0.7  725  273           
09 15.05.18 350 (С) 20000 м    8/5 600 м средняя 
[Cu hum|Ac trans]
+20.8 +13.4 63 +28  1018.7  0.7  725  269           
12 15.05.18 050 (СВ) 20000 м    8/4 1000 м кучево-дожд., средняя, верхняя 
[Cb calv|Ac trans|Ci fib]
+22.8 +11.9 50 +27  1017.9  -0.4  725  267           
15 15.05.18 330 (СЗ) 20000 м  {гроза}  8/3 1000 м кучево-дожд., средняя, верхняя 
[Cb calv|Ac trans|Ci fib]
+21.7 +12.8 57 +28  1017.5  -0.6  725  268    +24.5       
18 15.05.18 320 (СЗ) 20000 м  {гроза}  4/3 1000 м кучево-дожд., верхняя 
[Cb calv|Ci fib]
+18.5 +14.2 76 +27  1018.5  0.5  725  271           
21 15.05.18 300 (СЗ) 20000 м    6/3 600 м средняя 
[Sc diur, vesp|Ac trans]
+16.7 +13.5 81 +25  1018.9  0.1  725  273           
00 16.05.18 310 (СЗ) 20000 м    3/0 средняя 
[Ac trans]
+16.2 +13.2 82 +24  1018.6  -0.4  725  273           
03 16.05.18 300 (СЗ) 20000 м    8/0 средняя 
[Ac trans]
+13.7 +12.1 90 +19  1019.6  0.5  725  276  +13.5        сухая 
06 16.05.18 080 (В) 20000 м    3/0 верхняя 
[Ci fib]
+22 +11.6 52 +26  1018.4  0.2  725  268           
09 16.05.18 140 (ЮВ) 20000 м    4/1 600 м верхняя 
[Cu med, cong|Ci sp]
+26.2 +7.8 31 +26  1017.5  -0.2  725  265           
12 16.05.18 120 (ЮВ) 7-10{11}  20000 м    4/1 600 м верхняя 
[Cu med, cong|Ci fib]
+26.5 +5.9 27 +27  1016.6  -0.8  725  265           
15 16.05.18 130 (ЮВ) 4{12}  20000 м    3/0 верхняя 
[Ci sp]
+24 +6.5 32 +24  1016.8  -0.2  724  267    +26.8       
18 16.05.18 130 (ЮВ) 20000 м    3/0 верхняя 
[Ci fib]
+18.6 +6.7 46 +20  1018  0.3  725  272           
21 16.05.18 130 (ЮВ) 20000 м    3/0 средняя 
[Ac trans]
+17.8 +4.9 42 +19  1018.1  0.1  724  273           
00 17.05.18 110 (В) 20000 м    ясно 
+15.1 +5.5 53 +15  1018.3  -0.3  724  276           
03 17.05.18 160 (Ю) 20000 м    3/0 верхняя 
[Ci fib]
+17.7 +7.9 53 +19  1018.2  0.5  725  273  +14.3        сухая 
06 17.05.18 150 (ЮВ) 20000 м    ясно 
+22.9 +11 47 +26  1017.7  0.4  725  267           
09 17.05.18 130 (ЮВ) 6{10}  20000 м    3/3 600 м 
[Cu hum]
+26.6 +7.3 29 +27  1017.2  0.1  725  265           
12 17.05.18 110 (В) 5{10}  20000 м    3/3 600 м 
[Cu hum]
+27.4 +6.3 26 +27  1016  -1  724  264           
15 17.05.18 120 (ЮВ) 20000 м    3/3 1000 м 
[Cu hum]
+25.2 +7.6 33 +25  1016.1  -0.3  724  266    +28       
18 17.05.18 130 (ЮВ) 20000 м    3/0 средняя 
[Ac trans]
+19.2 +6.1 42 +20  1017.5  0.3  724  272           
21 17.05.18 140 (ЮВ) 20000 м    ясно 
+19 +6.5 44 +20  1017  -0.5  724  272           
00 18.05.18 190 (Ю) 20000 м    ясно 
+16.6 +7.3 54 +17  1016.9  -0.5  723  274           
03 18.05.18 210 (ЮЗ) 20000 м    5/0 верхняя 
[Ci fib]
+18.3 +8.3 52 +19  1016.1  -0.5  723  272  +14.3        сухая 
06 18.05.18 170 (Ю) 20000 м    8/0 верхняя 
[Ci]
+24.8 +9.7 38 +26  1015  0.1  723  265           
09 18.05.18 110 (В) 20000 м    8/1 600 м верхняя 
[Cu hum|Ci fib]
+27.5 +6.9 27 +28  1014.5  0.1  723  264           
12 18.05.18 360 (С) 20000 м    8/3 1000 м верхняя 
[Cu hum|Ci fib]
+27.9 +8.3 29 +28  1013.6  -0.7  723  263           
15 18.05.18 320 (СЗ) 20000 м    8/1 1000 м верхняя 
[Sc diur, vesp|Ci fib]
+23.9 +11.9 47 +28  1014.2  -0.1  722  265    +29.6       
18 18.05.18 280 (З) 20000 м    8/3 1000 м средняя 
[Sc|Ac trans]
+20.6 +6.6 40 +21  1015.7  0.8  723  270           
21 18.05.18 290 (З) 20000 м    6/0 средняя 
[Ac trans]
+17.8 +8.9 56 +18  1015.9  -0.3  723  272           
00 19.05.18 210 (ЮЗ) 20000 м    6/3 600 м средняя 
[Sc|Ac trans]
+16 +9.8 67 +19  1016.3  0.2  723  273           
03 19.05.18 170 (Ю) 20000 м    6/0 средняя 
[Ac trans]
+16.8 +10.3 65 +20  1016.2  -0.1  723  273  +14.4        сухая 
06 19.05.18 180 (Ю) 20000 м    4/0 верхняя 
[Ci fib]
+22.6 +11.7 50 +27  1015.3  0.1  723  267           
09 19.05.18 170 (Ю) 20000 м    6/3 600 м верхняя 
[Cu hum|Ci fib]
+26 +10.6 38 +29  1014.2  -0.6  723  264           
12 19.05.18 270 (З) 20000 м    5/3 600 м верхняя 
[Cu hum|Ci fib]
+26.6 +8.5 32 +27  1013.7  -0.4  722  264           
15 19.05.18 340 (С) 20000 м    6/3 1000 м средняя, верхняя 
[Sc diur, vesp|Ac trans|Ci fib]
+25.2 +7.1 31 +25  1013.6  -0.4  722  265    +26.9       
18 19.05.18 тихо ()   20000 м    8/3 600 м кучево-дожд., средняя, верхняя 
[Cb calv|Ac trans|Ci fib]
+20.3 +10.2 52 +22  1015.2  0.8  723  269           
21 19.05.18 360 (С) 20000 м    6/3 1000 м кучево-дожд., средняя, верхняя 
[Cb calv|Ac trans|Ci fib]
+20.4 +9.1 48 +21  1014.3  -0.9  722  269           
00 20.05.18 тихо ()   20000 м    5/0 средняя, верхняя 
[Ac trans|Ci fib]
+18 +7.7 51 +18  1014.7  722  272           
03 20.05.18 120 (ЮВ) 20000 м    6/1 1000 м кучево-дожд., средняя 
[Cb calv|Ac trans]
+18.7 +9.4 55 +21  1014.5  722  271  +17.1        сухая 
06 20.05.18 100 (В) 20000 м    3/0 средняя 
[Ac trans]
+23.1 +11.1 47 +27  1014.1  0.3  722  266           
09 20.05.18 080 (В) 20000 м    9/5 600 м кучево-дожд., средняя 
[Cb calv|Ac trans]
+25.2 +12.1 44 +30  1013  -0.7  722  264           
12 20.05.18 090 (В) 20000 м  гроза без осадков  9/6 1000 м кучево-дожд., средняя 
[Cb calv|Ac trans]
+26.2 +10.3 37 +29  1012.1  -0.7  721  263           
15 20.05.18 310 (СЗ) 10 км  гроза, ливневой дождь  10/8 600 м кучево-дожд., средняя 
[Cb cap|Ac und]
+16.5 +13.3 81 +24  1016  -0.7  723  272    +27.5     
18 20.05.18 тихо ()   20000 м  {гроза, ливн. осадки}  8/3 1000 м кучево-дожд., средняя 
[Cb cap|Ac As]
+15.3 +13.6 90 +23  1014.4  -1.8  722  273           
21 20.05.18 310 (СЗ) 20000 м    8/3 1000 м средняя 
[Sc|Ac trans]
+16.5 +12.3 76 +23  1013.8  -0.4  721  272           
00 21.05.18 тихо ()   20000 м    6/0 средняя 
[Ac trans]
+15.9 +11.7 76 +20  1014.2  0.3  722  272           
03 21.05.18 тихо ()   20000 м    10/4 1000 м кучево-дожд., средняя 
[Cb cap|Ac und]
+17.3 +12.6 74 +23  1014.5  0.6  722  271  +12.9      влажная 
06 21.05.18 290 (З) 20000 м  слаб. ливневой дождь  10/5 1000 м кучево-дожд., средняя 
[Cb cap|Ac und]
+19 +13.7 71 +27  1015.3  723  269           
09 21.05.18 290 (З) 5{11}  10 км  слаб. ливневой дождь  10/6 300 м кучево-дожд., средняя 
[Cb cap|Ac und]
+16.6 +15.3 92 +26  1017.1  1.3  724  272           
12 21.05.18 320 (СЗ) 20000 м  в посл. час ливневой дождь  10/4 600 м кучево-дожд., средняя 
[Cb calv|Ac und]
+19 +13.4 70 +27  1017  0.3  724  270           
15 21.05.18 тихо ()   20000 м    8/3 600 м средняя, верхняя 
[Sc diur, vesp|Ac trans|Ci fib]
+19.7 +12.9 65 +26  1017.3  0.4  724  270    +21.5     
18 21.05.18 тихо ()   20000 м    4/0 средняя 
[Ac trans]
+16.6 +12.8 78 +23  1018.4  0.5  725  273           
21 21.05.18 300 (СЗ) 20000 м    3/0 средняя 
[Ac trans]
+16.9 +11.6 71 +22  1018.2  0.1  725  273           
00 22.05.18 310 (СЗ) 20000 м    3/0 средняя 
[Ac trans]
+15.7 +12.5 81 +21  1018.6  0.2  725  274           
03 22.05.18 тихо ()   20000 м    4/0 средняя 
[Ac trans]
+17.3 +15.1 87 +27  1019.4  725  272  +14.1        влажная 
06 22.05.18 110 (В) 20000 м    8/3 1000 м средняя 
[Sc|Ac trans]
+19.7 +15.7 78 +32  1019.9  0.9  726  269           
09 22.05.18 080 (В) 20000 м    8/4 1000 м средняя 
[Sc|Ac trans]
+21.7 +14.9 65 +31  1019.2  -0.3  726  268           
12 22.05.18 060 (СВ) 20000 м    5/3 1000 м средняя 
[Sc|Ac trans]
+23.4 +15.5 61 +34  1018.2  -0.7  725  266           
15 22.05.18 070 (В) 20000 м    8/3 1000 м средняя 
[Sc|Ac trans]
+22.4 +14.6 61 +31  1018.5  -0.1  725  267    +24.1       
18 22.05.18 020 (С) 20000 м    5/0 средняя 
[Ac trans]
+19.5 +14.2 71 +29  1019.1  -0.1  725  270           
21 22.05.18 тихо ()   20000 м    8/0 средняя 
[Ac trans]
+19 +13.6 71 +26  1018.2  -0.9  725  270           
00 23.05.18 тихо ()   20000 м    3/0 средняя 
[Ac trans]
+17.7 +12.6 72 +23  1018  -0.4  724  272           
03 23.05.18 тихо ()   20000 м    5/1 600 м средняя 
[Sc|Ac trans]
+20.4 +14.8 70 +30  1017.2  -0.3  724  268  +14.8        сухая 
06 23.05.18 160 (Ю) 20000 м    8/0 средняя, верхняя 
[Ac trans|Ci fib]
+23.6 +14.8 58 +33  1016.9  0.2  724  266           
09 23.05.18 090 (В) 20000 м    8/3 600 м верхняя 
[Cu hum|Ci fib]
+26.6 +15 49 +36  1016.1  -0.3  724  263           
12 23.05.18 040 (СВ) 20000 м    6/3 600 м верхняя 
[Cu hum|Ci fib]
+26.8 +14.3 46 +35  1015.1  -0.8  724  263           
15 23.05.18 340 (С) 20000 м    9/3 600 м кучево-дожд., средняя, верхняя 
[Cb calv|Ac trans|Ci fib]
+26.2 +13.5 45 +33  1013.8  -1.4  723  263    +28.3       
18 23.05.18 270 (З) 9-13{17}  20000 м  зарница  10/6 600 м кучево-дожд., средняя 
[Cb calv|Ac und]
+19.2 +14 72 +27  1016.4  1.3  724  269           
21 23.05.18 310 (СЗ) 3{14}  20000 м    8/0 средняя 
[Ac trans]
+18.7 +14.2 75 +27  1015.9  -0.5  723  270           
00 24.05.18 270 (З) 20000 м    3/0 средняя 
[Ac trans]
+17 +14.5 85 +26  1015.4  -0.8  723  271           
03 24.05.18 300 (СЗ) 20000 м    8/3 1000 м средняя 
[Sc|Ac trans]
+18.6 +15.1 80 +29  1014.6  -0.5  722  269  +16.6        сухая 
06 24.05.18 300 (СЗ) 20000 м    6/0 верхняя 
[Ci]
+23.2 +14.4 58 +32  1013.9  -0.1  722  265           
09 24.05.18 310 (СЗ) 20000 м    6/1 600 м средняя 
[Cu med, cong|Ac cast]
+24.6 +14.3 53 +33  1013.4  -0.2  722  264           
12 24.05.18 300 (СЗ) 5{10}  20000 м  гроза без осадков  10/3 1000 м кучево-дожд., средняя, верхняя 
[Cb calv|Ac As|Ci ing]
+22.7 +15.8 65 +34  1012.8  -0.9  721  265           
15 24.05.18 290 (З) 20000 м  {гроза}  10/3 600 м кучево-дожд., средняя 
[Cb cap|Ac und]
+21.2 +14.7 66 +30  1013  0.1  721  267    +25.1       
18 24.05.18 320 (СЗ) 20000 м  в посл. час ливневой дождь{гроза}  10/8 1000 м кучево-дожд., средняя 
[Cb calv|Ac und]
+18.2 +13.4 74 +26  1013.4  -0.2  721  270           
21 24.05.18 310 (СЗ) 20000 м    10/3 1000 м кучево-дожд., средняя 
[Cb cap|Ac und]
+17.7 +12 69 +23  1012.2  -1.3  720  270           
00 25.05.18 тихо ()   20000 м    4/3 600 м средняя 
[Sc|Ac trans]
+16.3 +11.3 72 +20  1011.7  -0.7  720  271           
03 25.05.18 310 (СЗ) 20000 м    8/0 средняя 
[Ac trans]
+17.7 +12 69 +23  1011  -0.4  719  270  +14.6    0.3    влажная 
06 25.05.18 290 (З) 20000 м    9/3 600 м средняя 
[Sc|Ac trans]
+19.8 +12.3 62 +26  1011.3  0.7  720  268           
09 25.05.18 030 (СВ) 20000 м    8/0 средняя, верхняя 
[Ac trans|Ci fib]
+24.1 +13.6 52 +31  1009.9  -0.6  719  264           
12 25.05.18 350 (С) 20000 м    8/4 600 м средняя 
[Cu hum|Ac trans]
+24 +14.1 54 +32  1009.8  0.1  719  264           
15 25.05.18 320 (СЗ) 20000 м    8/3 1000 м средняя, верхняя 
[Sc diur, vesp|Ac trans|Ci fib]
+22.5 +14.7 61 +32  1009.7  -0.3  719  265    +25.2       
18 25.05.18 320 (СЗ) 20000 м    8/0 средняя 
[Ac trans]
+21 +14.3 66 +30  1010.8  0.8  720  266           
21 25.05.18 300 (СЗ) 20000 м    6/0 средняя 
[Ac trans]
+20.8 +11.6 56 +25  1010.8  0.1  720  267           
00 26.05.18 340 (С) 20000 м    8/0 средняя 
[Ac trans]
+20.7 +12.5 59 +26  1010.7  0.1  720  267           
03 26.05.18 010 (С) 20000 м    6/0 средняя 
[Ac trans]
+17.5 +14.2 81 +26  1012.6  1.3  721  270  +17.5        сухая 
06 26.05.18 060 (СВ) 6{10}  20000 м    8/4 300 м средняя 
[Sc|Ac trans]
+17.5 +12.1 71 +22  1015.3  2.5  722  271  +17.4         
09 26.05.18 050 (СВ) 7-10{13}  20000 м    3/1 1000 м средняя 
[Sc|Ac trans]
+18.8 +10.2 57 +21  1016.7  1.5  724  271           
12 26.05.18 060 (СВ) 9-12{13}  20000 м    6/0 верхняя 
[Ci]
+20.7 +8.3 45 +21  1017.5  1.1  724  270           
15 26.05.18 070 (В) 8-11  20000 м    8/3 1000 м верхняя 
[Sc|Ci]
+17.4 +0.7 32 +17  1020.3  726  275    +20.7       
18 26.05.18 070 (В) 6{11}  20000 м    6/0 средняя 
[Ac trans]
+15.3 -2.1 30 +15  1022.2  1.4  727  278           
21 26.05.18 080 (В) 8-11{12}  20000 м    8/0 средняя 
[Ac trans]
+13.8 -3.3 30 +13  1022.7  0.1  727  279           
00 27.05.18 090 (В) 8-11{12}  20000 м    3/0 средняя 
[Ac trans]
+10.8 -4.7 33 +9  1023.7  0.5  727  282           
03 27.05.18 080 (В) 20000 м    3/0 верхняя 
[Ci fib]
+9.9 -2.1 43 +8  1023.7  0.1  727  283  +9        сухая 
06 27.05.18 100 (В) 13-17{18}  20000 м    3/0 верхняя 
[Ci fib]
+15.3 -1.4 32 +14  1023.4  0.6  728  278           
09 27.05.18 110 (В) 12-17{18}  20000 м    3/0 верхняя 
[Ci fib]
+19.1 +5 39 +19  1022.3  -0.3  728  273           
12 27.05.18 110 (В) 13-17{18}  20000 м    9/0 верхняя 
[Ci fib]
+20.9 +6.5 39 +21  1020.3  -1.6  726  271           
15 27.05.18 110 (В) 9-13  20000 м    9/0 верхняя 
[Ci fib]
+19.1 +5.8 42 +19  1019.7  -0.9  726  272    +21.2       
18 27.05.18 110 (В) 5{16}  20000 м    4/0 верхняя 
[Ci fib]
+14.2 +5.9 57 +14  1020.4  -0.2  726  277           
21 27.05.18 120 (ЮВ) 20000 м    4/0 верхняя 
[Ci fib]
+12.8 +6.1 64 +12  1020  -0.6  725  278           
00 28.05.18 100 (В) 5{10}  20000 м    6/0 верхняя 
[Ci fib]
+10.1 +7.2 82 +9  1020  -0.4  725  280           
03 28.05.18 110 (В) 20000 м    5/0 верхняя 
[Ci fib]
+9.8 +7.4 85 +9  1019.9  -0.2  725  281  +9        сухая 
06 28.05.18 140 (ЮВ) 20000 м    6/0 средняя, верхняя 
[Ac trans|Ci fib]
+15.9 +9.6 66 +17  1018.7  725  274           
09 28.05.18 100 (В) 20000 м    8/0 средняя, верхняя 
[Ac trans|Ci fib]
+21.4 +11.8 54 +26  1017.7  0.1  725  269           
12 28.05.18 050 (СВ) 20000 м    5/0 средняя, верхняя 
[Ac trans|Ci fib]
+23 +10.3 45 +25  1016.8  -0.7  724  267           
15 28.05.18 070 (В) 20000 м    3/0 средняя 
[Ac trans]
+22.2 +8.5 41 +22  1016.9  -0.1  724  268    +23.4       
18 28.05.18 050 (СВ) 20000 м    8/0 верхняя 
[Cs]
+18 +7.1 49 +18  1018.6  0.9  725  273           
21 28.05.18 050 (СВ) 20000 м    6/0 верхняя 
[Cs]
+15.2 +2.1 41 +15  1019.6  0.4  725  276           
00 29.05.18 100 (В) 20000 м    3/0 верхняя 
[Cs]
+11.9 +1.4 49 +12  1020  0.1  725  280           
03 29.05.18 080 (В) 20000 м    4/0 верхняя 
[Ci]
+13.6 +1.7 44 +13  1020  0.3  725  278  +10.3        сухая 
06 29.05.18 080 (В) 8-10{12}  20000 м    8/0 верхняя 
[Ci]
+20.2 +2.2 30 +20  1019.6  0.8  726  272           
09 29.05.18 080 (В) 10-13{15}  20000 м    8/0 верхняя 
[Ci fib]
+22.3 +3.3 29 +22  1019.2  726  270           
12 29.05.18 080 (В) 11-15{15}  20000 м    8/0 средняя, верхняя 
[Ac trans|Ci]
+21.8 +4 31 +22  1018.2  -1  725  270           
15 29.05.18 090 (В) 9-13  20000 м    8/0 средняя, верхняя 
[Ac trans|Ci fib]
+19.7 +3.4 34 +20  1018.1  -0.5  725  272    +22.7       
18 29.05.18 090 (В) 7-10{13}  20000 м    6/0 средняя 
[Ac trans]
+15.8 +5 49 +15  1019.1  0.3  725  275           
21 29.05.18 070 (В) 5{10}  20000 м    5/0 средняя 
[Ac trans]
+10 +4.3 68 +9  1020.2  725  281           
00 30.05.18 080 (В) 4{10}  20000 м    4/0 средняя 
[Ac trans]
+8.5 +5.5 81 +7  1019.3  -1.2  724  282           
03 30.05.18 100 (В) 20000 м    3/0 верхняя 
[Ci fib]
+10.7 +5.2 69 +9  1018.1  -0.7  724  280  +8.5        сухая 
06 30.05.18 100 (В) 12-16{18}  20000 м    3/0 верхняя 
[Ci fib]
+15.7 +5.3 50 +14  1016.8  -0.3  723  275           
09 30.05.18 110 (В) 10-14{18}  20000 м    4/1 1000 м верхняя 
[Sc|Ci fib]
+19.2 +4.4 38 +19  1016.1  0.1  723  272           
12 30.05.18 120 (ЮВ) 8-13{15}  20000 м    4/0 верхняя 
[Ci fib]
+20.6 +5.3 37 +21  1014.2  -1.5  722  270           
15 30.05.18 120 (ЮВ) 5{13}  20000 м    4/0 верхняя 
[Ci fib]
+19.6 +7.1 44 +20  1013.7  -0.6  722  270    +20.9       
18 30.05.18 160 (Ю) 20000 м    3/0 средняя 
[Ac trans]
+14.1 +8.8 70 +14  1014.7  0.1  722  275           
21 30.05.18 130 (ЮВ) 20000 м    3/0 средняя 
[Ac trans]
+13 +8.5 74 +14  1014  -0.8  721  276           
00 31.05.18 тихо ()   20000 м    3/0 
+11.4 +8.1 80 +11  1013.9  -0.4  721  277           
03 31.05.18 160 (Ю) 20000 м    3/0 средняя 
[Ac trans]
+14.6 +9.4 71 +16  1012.6  -0.6  720  274  +10.7        сухая 
06 31.05.18 120 (ЮВ) 20000 м    ясно 
+19.7 +9.6 52 +21  1010.6  -1  719  269           
09 31.05.18 100 (В) 20000 м    3/0 верхняя 
[Ci fib]
+23.6 +8.5 38 +24  1009  -1  719  265           
12 31.05.18 100 (В) 20000 м    4/3 600 м верхняя 
[Cu hum|Ci fib]
+25.8 +9.3 35 +27  1006.8  -1.7  717  262           
15 31.05.18 330 (СЗ) 20000 м    6/1 600 м кучево-дожд., верхняя 
[Cb calv|Ci fib]
+23.7 +9.2 40 +25  1007  -0.2  717  264    +25.8       
18 31.05.18 270 (З) 20000 м    5/0 верхняя 
[Sc|Ci fib]
+18.3 +9.2 55 +20  1008.5  0.5  718  269           
21 31.05.18 260 (З) 20000 м    6/0 верхняя 
[Ci fib]
+17.3 +8.4 56 +18  1007.9  -0.7  717  270           
00 01.06.18 280 (З) 20000 м    4/0 верхняя 
[Ci fib]
+17.1 +9.1 59 +18  1007.5  -0.4  717  270           
03 01.06.18 280 (З) 20000 м    8/3 1000 м средняя, верхняя 
[Sc|Ac trans|Ci fib]
+16.9 +5.5 47 +16  1007.7  -0.1  717  271  +15.7        сухая 
Время (UTC), дата Ветер
(°,м/с) 
Видим.   Явления Облачность Т
(°С)
Тd
(°С)
f(%) Тe
(°С)
Pmin
(гПа)
dP
(гПа)
Po
(мм)
O2
(г/м3)
Тmin Tmax R s Состояние
почвы